User: anonymous   Login
Location: Festilli
(46.4000°N, 11.6667°E)
Time: 22:49:27
(UTC+00:00)
Language:

ERS-2 - Orbit

View from above orbital plane
View from above orbital plane
View from above satellite
View from above satellite

Ground track
Ground track

The orbit data is extracted from the following two-line orbital elements,

1 23560U 95021A   21127.82068357  .00000795  00000-0  36701-4 0  9997
2 23560  98.5522 332.3112 0004249 132.0183 228.1413 15.23882280391509
Epoch (UTC): 07 May 2021 19:41:47
Eccentricity: 0.0004249
inclination: 98.5522°
perigee height: 491 km
apogee height: 497 km
right ascension of ascending node: 332.3112°
argument of perigee: 132.0183°
revolutions per day: 15.23882280
mean anomaly at epoch: 228.1413°
orbit number at epoch: 39150

The dashed part of the orbit path shows where the satellite is in the earth's shadow,  

DLR